Location: Abraham Lincoln Continuation High School
(33.9711°N, 117.3662°W)
Time: 14:53:27
(UTC+00:00)

Meteor 1-21 - Pass Details

Date: 21 September 2020
Orbit: 845 x 887 km, 81.2° (Epoch: 28 October)

Event Time Altitude Azimuth Distance (km) Brightness Sun altitude
Rises 02:33:44 0° 353° (N) 3,415 7.6 -10.3°
Reaches altitude 10° 02:36:10 10° 355° (N) 2,473 6.8 -10.8°
Maximum altitude 02:41:47 79° 82° (E) 863 4.1 -11.9°
Drops below altitude 10° 02:47:21 10° 169° (S) 2,460 6.4 -13.1°
Sets 02:49:46 0° 170° (S) 3,395 7.1 -13.6°
